Home > Weather > Downey > Past weeks

Flag for USA Past Weather in Downey, California, USA — Yesterday and Last 2 Weeks

Now
86 °F

Sunny.


Feels Like: 87 °F
Forecast: 68 / 90 °F
Wind: 7 mph from South

Location: Long Beach Airport

Current Time: Jul 26, 2016 at 1:01:04 PM

Latest Report: Jul 26, 2016 at 11:53 AM


Visibility: 10 mi

Pressure: 29.88 "Hg

Humidity: 48%

Dew Point: 64 °F

Location of DowneyLocation

Past Weather in Downey — Graph

°F

Downey Temperature Yesterday

Maximum temperature yesterday: 90 °F (at 3:53 PM)
Minimum temperature yesterday: 70 °F (at 12:53 AM)
Average temperature yesterday: 77 °F

High & Low Weather Summary for the Past Weeks

 TemperatureHumidityPressure
High98 °F (Jul 22, 2:53 PM)93% (Jul 24, 3:53 AM)30.03 "Hg (Jul 24, 3:53 AM)
Low64 °F (Jul 15, 2:53 AM)19% (Jul 22, 2:53 PM)29.80 "Hg (Jul 23, 3:53 AM)
Average74 °F67%29.92 "Hg
* Reported Jul 11 11:53 AM — Jul 26 11:53 AM, Downey, Weather by CustomWeather, © 2016

Note: Actual official high and low records may vary slightly from our data, if they occured in-between our weather recording intervals... More about our weather records

Advertising

Downey Weather History for the Previous 24 Hours

Scroll right to see more
 ConditionsComfort  
Time TempWeatherWind HumidityBarometerVisibility
11:53 AM
Tue, Jul 26
86 °FSunny.7 mph48%29.88 "Hg10 mi
10:53 AM84 °FSunny.8 mph53%29.89 "Hg9 mi
9:53 AM81 °FSunny.No wind54%29.89 "Hg10 mi
8:53 AM77 °FSunny.6 mph66%29.89 "Hg9 mi
7:53 AM73 °FSunny.3 mph76%29.89 "Hg8 mi
6:53 AM70 °FClear.7 mph84%29.89 "Hg7 mi
5:53 AM70 °FClear.7 mph84%29.88 "Hg9 mi
4:53 AM70 °FClear.6 mph84%29.88 "Hg9 mi
3:53 AM70 °FClear.5 mph84%29.89 "Hg8 mi
2:53 AM71 °FClear.6 mph81%29.90 "Hg10 mi
1:53 AM72 °FClear.6 mph81%29.90 "Hg9 mi
12:53 AM73 °FClear.5 mph79%29.90 "Hg10 mi
11:53 PM
Mon, Jul 25
73 °FClear.3 mph79%29.91 "Hg10 mi
10:53 PM73 °FClear.5 mph79%29.90 "Hg10 mi
9:53 PM73 °FClear.5 mph76%29.91 "Hg10 mi
8:53 PM74 °FSunny.8 mph76%29.89 "Hg9 mi
7:53 PM77 °FSunny.8 mph69%29.87 "Hg10 mi
6:53 PM80 °FSunny.10 mph62%29.85 "Hg10 mi
5:53 PM87 °FSunny.12 mph45%29.84 "Hg10 mi
4:53 PM90 °FSunny.9 mph23%29.85 "Hg10 mi
3:53 PM90 °FSunny.10 mph29%29.86 "Hg10 mi
2:53 PM88 °FSunny.9 mph35%29.88 "Hg10 mi
1:53 PM85 °FScattered clouds.10 mph48%29.90 "Hg9 mi
Weather by CustomWeather, © 2016

See weather overviewHow to use our weather pages